Location: Observatory
(52.1446°N, 0.4624°W)
Time: 10:08:08
(UTC+01:00)

ISS - Pass Details

Date: 24 May 2019
Orbit: 407 x 418 km, 51.6° (Epoch: 24 June)

Event Time Altitude Azimuth Distance (km) Brightness Sun altitude
Rises 23:07:39 0° 274° (W) 2,358 0.5 -13.1°
Reaches altitude 10° 23:09:45 10° 273° (W) 1,497 -0.6 -13.2°
Maximum altitude 23:13:06 80° 186° (S) 430 -3.9 -13.5°
Enters shadow 23:16:07 13° 101° (E) 1,357 -1.5 -13.6°
